BEIDOU M3

Last updated on Mon Apr 01 2019 03:15:19 GMT+0000 (Coordinated Universal Time)

1 38250U 12018A 19090.74388698 -.00000093 00000-0 10000-3 0 9999 2 38250 56.5992 32.3725 0022351 241.8535 9.4581 1.86232911 47224
UTC large
Height (km)
Speed (km/s)
/
Latitude / Longitude
Inclination (degrees)
Orbital Period (minutes)
Azimuth
Elevation
Range (km)
Doppler Factor

Next 0 passes for location: London (51.5072 / 0.1276)

Sorry there are no passes over London.